Time,TemperatureF,DewpointF,PressureIn,WindDirection,WindDirectionDegrees,WindSpeedMPH,WindSpeedGustMPH,Humidity,HourlyPrecipIn,Conditions,Clouds,dailyrainin,SolarRadiationWatts/m^2,SoftwareType,DateUTC
2013-06-02 00:00:00,59.8,44.4,-100.00,NW,324,2.2,4.0,56,0.00,,,-99.99,1.0,HOBO +U30 +Weather +,2013-06-02 06:00:00,
2013-06-02 00:10:00,60.3,44.3,-100.00,NNE,18,1.8,4.5,55,0.00,,,-99.99,1.0,HOBO +U30 +Weather +,2013-06-02 06:10:00,
2013-06-02 00:12:00,59.9,44.4,-100.00,NW,310,1.8,4.0,56,0.00,,,-99.99,1.0,HOBO +U30 +Weather +,2013-06-02 06:12:00,
2013-06-02 00:15:00,60.4,44.2,-100.00,NE,35,4.5,7.4,54,0.00,,,-99.99,1.0,HOBO +U30 +Weather +,2013-06-02 06:15:00,
2013-06-02 00:20:00,60.6,44.1,-100.00,NE,45,6.7,9.6,54,0.00,,,-99.99,1.0,HOBO +U30 +Weather +,2013-06-02 06:20:00,
2013-06-02 00:25:00,60.5,44.2,-100.00,NE,45,7.4,11.2,54,0.00,,,-99.99,1.0,HOBO +U30 +Weather +,2013-06-02 06:25:00,
2013-06-02 00:30:00,60.4,44.2,-100.00,NE,38,6.3,8.5,55,0.00,,,-99.99,1.0,HOBO +U30 +Weather +,2013-06-02 06:30:00,
2013-06-02 00:35:00,60.3,44.3,-100.00,NE,38,6.7,9.6,55,0.00,,,-99.99,1.0,HOBO +U30 +Weather +,2013-06-02 06:35:00,
2013-06-02 00:40:00,60.2,44.5,-100.00,NNE,32,6.7,8.5,55,0.00,,,-99.99,1.0,HOBO +U30 +Weather +,2013-06-02 06:40:00,
2013-06-02 00:45:00,59.9,44.6,-100.00,NNE,27,6.3,8.5,56,0.00,,,-99.99,1.0,HOBO +U30 +Weather +,2013-06-02 06:45:00,
2013-06-02 00:50:00,59.7,44.6,-100.00,NNE,29,5.6,8.5,57,0.00,,,-99.99,1.0,HOBO +U30 +Weather +,2013-06-02 06:50:00,
2013-06-02 00:55:00,59.6,44.8,-100.00,NNE,29,6.3,8.9,58,0.00,,,-99.99,1.0,HOBO +U30 +Weather +,2013-06-02 06:55:00,
2013-06-02 01:00:00,59.6,44.9,-100.00,NE,38,7.4,10.7,58,0.00,,,-99.99,1.0,HOBO +U30 +Weather +,2013-06-02 07:00:00,
2013-06-02 01:05:00,59.6,44.7,-100.00,NE,34,7.4,10.1,57,0.00,,,-99.99,1.0,HOBO +U30 +Weather +,2013-06-02 07:05:00,
2013-06-02 01:10:00,59.8,44.7,-100.00,NE,44,7.8,11.2,57,0.00,,,-99.99,1.0,HOBO +U30 +Weather +,2013-06-02 07:10:00,
2013-06-02 01:15:00,59.5,44.8,-100.00,NE,39,7.4,9.6,58,0.00,,,-99.99,1.0,HOBO +U30 +Weather +,2013-06-02 07:15:00,
2013-06-02 01:20:00,59.6,44.6,-100.00,NE,35,7.4,10.1,57,0.00,,,-99.99,1.0,HOBO +U30 +Weather +,2013-06-02 07:20:00,
2013-06-02 01:25:00,59.5,44.8,-100.00,NE,37,7.8,10.1,58,0.00,,,-99.99,1.0,HOBO +U30 +Weather +,2013-06-02 07:25:00,
2013-06-02 01:30:00,59.5,44.7,-100.00,NE,38,8.5,10.7,57,0.00,,,-99.99,1.0,HOBO +U30 +Weather +,2013-06-02 07:30:00,
2013-06-02 01:35:00,59.5,44.6,-100.00,NE,44,7.4,10.1,57,0.00,,,-99.99,1.0,HOBO +U30 +Weather +,2013-06-02 07:35:00,
2013-06-02 01:40:00,59.5,44.7,-100.00,NE,42,6.7,10.7,57,0.00,,,-99.99,1.0,HOBO +U30 +Weather +,2013-06-02 07:40:00,
2013-06-02 01:45:00,59.6,44.5,-100.00,NE,46,6.7,8.5,57,0.00,,,-99.99,1.0,HOBO +U30 +Weather +,2013-06-02 07:45:00,
2013-06-02 01:50:00,59.8,44.3,-100.00,NE,39,6.7,8.9,56,0.00,,,-99.99,1.0,HOBO +U30 +Weather +,2013-06-02 07:50:00,
2013-06-02 01:55:00,59.8,44.2,-100.00,NE,39,8.5,12.3,56,0.00,,,-99.99,1.0,HOBO +U30 +Weather +,2013-06-02 07:55:00,
2013-06-02 02:00:00,59.5,44.2,-100.00,NE,45,7.8,11.2,56,0.00,,,-99.99,1.0,HOBO +U30 +Weather +,2013-06-02 08:00:00,
2013-06-02 02:10:00,59.6,43.9,-100.00,NE,53,7.8,11.2,56,0.00,,,-99.99,1.0,HOBO +U30 +Weather +,2013-06-02 08:10:00,
2013-06-02 02:15:00,59.2,44.2,-100.00,NE,44,6.7,9.6,57,0.00,,,-99.99,1.0,HOBO +U30 +Weather +,2013-06-02 08:15:00,
2013-06-02 02:20:00,59.2,44.1,-100.00,NE,37,6.3,8.9,57,0.00,,,-99.99,1.0,HOBO +U30 +Weather +,2013-06-02 08:20:00,
2013-06-02 02:25:00,59.4,44.1,-100.00,NE,42,5.1,8.5,56,0.00,,,-99.99,1.0,HOBO +U30 +Weather +,2013-06-02 08:25:00,
2013-06-02 02:30:00,59.2,44.0,-100.00,ENE,63,3.4,8.9,57,0.00,,,-99.99,1.0,HOBO +U30 +Weather +,2013-06-02 08:30:00,
2013-06-02 02:35:00,59.0,44.1,-100.00,NE,38,0.7,4.0,57,0.00,,,-99.99,1.0,HOBO +U30 +Weather +,2013-06-02 08:35:00,
2013-06-02 02:40:00,59.2,44.2,-100.00,NNE,20,1.1,4.0,57,0.00,,,-99.99,1.0,HOBO +U30 +Weather +,2013-06-02 08:40:00,
2013-06-02 02:45:00,59.1,44.3,-100.00,NE,56,5.1,8.5,58,0.00,,,-99.99,1.0,HOBO +U30 +Weather +,2013-06-02 08:45:00,
2013-06-02 02:50:00,58.9,44.3,-100.00,NE,46,5.1,9.6,58,0.00,,,-99.99,1.0,HOBO +U30 +Weather +,2013-06-02 08:50:00,
2013-06-02 02:55:00,58.5,44.4,-100.00,NE,46,5.1,8.5,59,0.00,,,-99.99,1.0,HOBO +U30 +Weather +,2013-06-02 08:55:00,
2013-06-02 03:00:00,58.4,44.5,-100.00,NE,46,6.3,9.6,59,0.00,,,-99.99,1.0,HOBO +U30 +Weather +,2013-06-02 09:00:00,
2013-06-02 03:05:00,58.3,44.5,-100.00,NE,41,6.7,11.2,59,0.00,,,-99.99,1.0,HOBO +U30 +Weather +,2013-06-02 09:05:00,
2013-06-02 03:10:00,58.1,44.6,-100.00,NE,44,6.3,8.5,60,0.00,,,-99.99,1.0,HOBO +U30 +Weather +,2013-06-02 09:10:00,
2013-06-02 03:15:00,58.1,44.6,-100.00,NNE,31,5.6,7.8,60,0.00,,,-99.99,1.0,HOBO +U30 +Weather +,2013-06-02 09:15:00,
2013-06-02 03:20:00,58.1,44.5,-100.00,NNE,21,5.1,7.8,60,0.00,,,-99.99,1.0,HOBO +U30 +Weather +,2013-06-02 09:20:00,
2013-06-02 03:25:00,58.3,44.4,-100.00,NNE,22,7.4,12.3,59,0.00,,,-99.99,1.0,HOBO +U30 +Weather +,2013-06-02 09:25:00,
2013-06-02 03:30:00,58.2,44.5,-100.00,NE,38,5.6,8.9,60,0.00,,,-99.99,1.0,HOBO +U30 +Weather +,2013-06-02 09:30:00,
2013-06-02 03:35:00,58.1,44.5,-100.00,NE,45,7.4,10.7,60,0.00,,,-99.99,1.0,HOBO +U30 +Weather +,2013-06-02 09:35:00,
2013-06-02 03:40:00,58.2,44.5,-100.00,NE,52,7.4,14.1,60,0.00,,,-99.99,1.0,HOBO +U30 +Weather +,2013-06-02 09:40:00,
2013-06-02 03:45:00,57.9,44.5,-100.00,NE,53,8.5,12.3,60,0.00,,,-99.99,1.0,HOBO +U30 +Weather +,2013-06-02 09:45:00,
2013-06-02 03:50:00,58.1,44.4,-100.00,NE,51,7.8,11.9,60,0.00,,,-99.99,1.0,HOBO +U30 +Weather +,2013-06-02 09:50:00,
2013-06-02 03:55:00,57.7,44.6,-100.00,NE,55,5.1,7.4,61,0.00,,,-99.99,1.0,HOBO +U30 +Weather +,2013-06-02 09:55:00,
2013-06-02 04:05:00,57.6,44.5,-100.00,ENE,60,5.1,8.9,61,0.00,,,-99.99,1.0,HOBO +U30 +Weather +,2013-06-02 10:05:00,
2013-06-02 04:08:00,57.9,44.4,-100.00,ENE,62,6.3,9.6,60,0.00,,,-99.99,1.0,HOBO +U30 +Weather +,2013-06-02 10:08:00,
2013-06-02 04:10:00,57.1,44.8,-100.00,SSE,156,2.2,4.0,63,0.00,,,-99.99,1.0,HOBO +U30 +Weather +,2013-06-02 10:10:00,
2013-06-02 04:15:00,56.8,45.0,-100.00,SSW,206,2.9,4.5,64,0.00,,,-99.99,1.0,HOBO +U30 +Weather +,2013-06-02 10:15:00,
2013-06-02 04:20:00,56.3,45.4,-100.00,SW,226,3.4,5.1,66,0.00,,,-99.99,1.0,HOBO +U30 +Weather +,2013-06-02 10:20:00,
2013-06-02 04:25:00,55.9,45.5,-100.00,SW,223,2.2,4.5,68,0.00,,,-99.99,1.0,HOBO +U30 +Weather +,2013-06-02 10:25:00,
2013-06-02 04:30:00,55.7,45.6,-100.00,SSW,213,2.2,5.1,68,0.00,,,-99.99,1.0,HOBO +U30 +Weather +,2013-06-02 10:30:00,
2013-06-02 04:35:00,55.3,45.6,-100.00,SSW,209,2.9,5.6,69,0.00,,,-99.99,1.0,HOBO +U30 +Weather +,2013-06-02 10:35:00,
2013-06-02 04:40:00,55.2,45.8,-100.00,SSW,211,2.2,4.0,70,0.00,,,-99.99,1.0,HOBO +U30 +Weather +,2013-06-02 10:40:00,
2013-06-02 04:45:00,54.8,45.8,-100.00,SSW,199,2.2,4.5,71,0.00,,,-99.99,1.0,HOBO +U30 +Weather +,2013-06-02 10:45:00,
2013-06-02 04:50:00,54.7,45.8,-100.00,SSW,197,1.1,3.4,71,0.00,,,-99.99,1.0,HOBO +U30 +Weather +,2013-06-02 10:50:00,
2013-06-02 04:55:00,54.5,45.7,-100.00,SSW,199,0.0,1.1,72,0.00,,,-99.99,1.0,HOBO +U30 +Weather +,2013-06-02 10:55:00,
2013-06-02 05:00:00,54.6,45.8,-100.00,SSW,199,0.0,1.1,71,0.00,,,-99.99,1.0,HOBO +U30 +Weather +,2013-06-02 11:00:00,
2013-06-02 05:05:00,54.8,45.7,-100.00,SSW,199,0.0,2.2,71,0.00,,,-99.99,1.0,HOBO +U30 +Weather +,2013-06-02 11:05:00,
2013-06-02 05:10:00,54.5,45.8,-100.00,SSW,199,0.0,1.1,72,0.00,,,-99.99,1.0,HOBO +U30 +Weather +,2013-06-02 11:10:00,
2013-06-02 05:15:00,54.6,45.6,-100.00,SSW,199,0.0,1.8,71,0.00,,,-99.99,1.0,HOBO +U30 +Weather +,2013-06-02 11:15:00,
2013-06-02 05:20:00,54.5,45.6,-100.00,SSW,199,1.1,2.9,71,0.00,,,-99.99,1.0,HOBO +U30 +Weather +,2013-06-02 11:20:00,
2013-06-02 05:25:00,54.2,45.3,-100.00,SSW,199,0.0,1.8,71,0.00,,,-99.99,2.0,HOBO +U30 +Weather +,2013-06-02 11:25:00,
2013-06-02 05:30:00,54.1,45.4,-100.00,SSW,199,0.0,1.1,72,0.00,,,-99.99,3.0,HOBO +U30 +Weather +,2013-06-02 11:30:00,
2013-06-02 05:35:00,54.2,45.4,-100.00,SSW,199,0.0,0.7,72,0.00,,,-99.99,8.0,HOBO +U30 +Weather +,2013-06-02 11:35:00,
2013-06-02 05:40:00,54.1,45.5,-100.00,SSW,199,0.0,0.0,72,0.00,,,-99.99,8.0,HOBO +U30 +Weather +,2013-06-02 11:40:00,
2013-06-02 05:45:00,54.1,45.8,-100.00,SSW,199,0.0,1.1,73,0.00,,,-99.99,11.0,HOBO +U30 +Weather +,2013-06-02 11:45:00,
2013-06-02 05:50:00,54.2,45.5,-100.00,SSW,199,0.7,2.2,72,0.00,,,-99.99,14.0,HOBO +U30 +Weather +,2013-06-02 11:50:00,
2013-06-02 05:55:00,54.2,45.6,-100.00,SSW,199,1.1,3.4,72,0.00,,,-99.99,22.0,HOBO +U30 +Weather +,2013-06-02 11:55:00,
2013-06-02 06:05:00,54.2,45.6,-100.00,SSW,209,1.8,3.4,72,0.00,,,-99.99,29.0,HOBO +U30 +Weather +,2013-06-02 12:05:00,
2013-06-02 06:10:00,54.0,45.6,-100.00,SSW,212,0.0,1.8,73,0.00,,,-99.99,32.0,HOBO +U30 +Weather +,2013-06-02 12:10:00,
2013-06-02 06:15:00,54.0,45.6,-100.00,SSW,212,0.0,0.0,73,0.00,,,-99.99,42.0,HOBO +U30 +Weather +,2013-06-02 12:15:00,
2013-06-02 06:20:00,54.4,45.8,-100.00,SSW,212,0.0,0.7,72,0.00,,,-99.99,69.0,HOBO +U30 +Weather +,2013-06-02 12:20:00,
2013-06-02 06:25:00,54.8,46.1,-100.00,WSW,246,0.7,1.8,72,0.00,,,-99.99,68.0,HOBO +U30 +Weather +,2013-06-02 12:25:00,
2013-06-02 06:30:00,54.9,46.4,-100.00,WNW,282,0.0,0.7,72,0.00,,,-99.99,108.0,HOBO +U30 +Weather +,2013-06-02 12:30:00,
2013-06-02 06:35:00,55.5,46.7,-100.00,NNW,341,2.9,5.1,72,0.00,,,-99.99,181.0,HOBO +U30 +Weather +,2013-06-02 12:35:00,
2013-06-02 06:40:00,56.9,47.7,-100.00,North,0,1.8,3.4,71,0.00,,,-99.99,232.0,HOBO +U30 +Weather +,2013-06-02 12:40:00,
2013-06-02 06:45:00,57.6,47.8,-100.00,North,1,1.8,3.4,69,0.00,,,-99.99,183.0,HOBO +U30 +Weather +,2013-06-02 12:45:00,
2013-06-02 06:50:00,57.6,47.6,-100.00,North,7,1.8,3.4,69,0.00,,,-99.99,142.0,HOBO +U30 +Weather +,2013-06-02 12:50:00,
2013-06-02 06:55:00,56.3,46.9,-100.00,NNW,343,2.9,5.1,70,0.00,,,-99.99,141.0,HOBO +U30 +Weather +,2013-06-02 12:55:00,
2013-06-02 07:05:00,55.8,46.7,-100.00,North,0,4.0,6.7,71,0.00,,,-99.99,116.0,HOBO +U30 +Weather +,2013-06-02 13:05:00,
2013-06-02 07:10:00,55.6,47.0,-100.00,North,11,4.5,6.3,72,0.00,,,-99.99,107.0,HOBO +U30 +Weather +,2013-06-02 13:10:00,
2013-06-02 07:15:00,55.3,46.9,-100.00,NNE,24,5.1,7.8,73,0.00,,,-99.99,102.0,HOBO +U30 +Weather +,2013-06-02 13:15:00,
2013-06-02 07:20:00,55.3,46.8,-100.00,NNE,32,6.7,9.6,73,0.00,,,-99.99,101.0,HOBO +U30 +Weather +,2013-06-02 13:20:00,
2013-06-02 07:25:00,55.4,46.8,-100.00,NNE,22,6.7,8.9,72,0.00,,,-99.99,104.0,HOBO +U30 +Weather +,2013-06-02 13:25:00,
2013-06-02 07:30:00,55.5,47.2,-100.00,NE,37,5.1,8.9,73,0.00,,,-99.99,103.0,HOBO +U30 +Weather +,2013-06-02 13:30:00,
2013-06-02 07:35:00,55.4,47.2,-100.00,NE,39,6.7,9.6,73,0.00,,,-99.99,179.0,HOBO +U30 +Weather +,2013-06-02 13:35:00,
2013-06-02 07:40:00,55.8,47.4,-100.00,NE,41,6.3,8.9,73,0.00,,,-99.99,128.0,HOBO +U30 +Weather +,2013-06-02 13:40:00,
2013-06-02 07:45:00,55.7,47.4,-100.00,NE,37,7.4,9.6,73,0.00,,,-99.99,238.0,HOBO +U30 +Weather +,2013-06-02 13:45:00,
2013-06-02 07:50:00,56.9,47.9,-100.00,NNE,32,5.6,8.5,71,0.00,,,-99.99,276.0,HOBO +U30 +Weather +,2013-06-02 13:50:00,
2013-06-02 08:00:00,56.6,47.9,-100.00,NNE,25,4.5,7.8,72,0.00,,,-99.99,211.0,HOBO +U30 +Weather +,2013-06-02 14:00:00,
2013-06-02 08:03:00,56.2,47.8,-100.00,NNE,32,6.7,10.1,73,0.00,,,-99.99,253.0,HOBO +U30 +Weather +,2013-06-02 14:03:00,
2013-06-02 08:05:00,57.6,48.5,-100.00,NNE,15,4.0,6.3,71,0.00,,,-99.99,373.0,HOBO +U30 +Weather +,2013-06-02 14:05:00,
2013-06-02 08:10:00,58.2,48.1,-100.00,North,355,4.5,7.4,69,0.00,,,-99.99,354.0,HOBO +U30 +Weather +,2013-06-02 14:10:00,
2013-06-02 08:15:00,59.0,48.6,-100.00,NNE,14,4.0,6.3,68,0.00,,,-99.99,398.0,HOBO +U30 +Weather +,2013-06-02 14:15:00,
2013-06-02 08:20:00,58.7,48.1,-100.00,NE,34,4.5,6.7,67,0.00,,,-99.99,418.0,HOBO +U30 +Weather +,2013-06-02 14:20:00,
2013-06-02 08:25:00,58.7,48.2,-100.00,NE,37,5.1,6.7,68,0.00,,,-99.99,433.0,HOBO +U30 +Weather +,2013-06-02 14:25:00,
2013-06-02 08:30:00,58.7,47.5,-100.00,NE,45,5.1,7.8,66,0.00,,,-99.99,436.0,HOBO +U30 +Weather +,2013-06-02 14:30:00,
2013-06-02 08:35:00,58.9,47.4,-100.00,NNE,25,6.3,8.5,65,0.00,,,-99.99,437.0,HOBO +U30 +Weather +,2013-06-02 14:35:00,
2013-06-02 08:40:00,59.4,47.8,-100.00,NE,38,5.6,8.5,65,0.00,,,-99.99,453.0,HOBO +U30 +Weather +,2013-06-02 14:40:00,
2013-06-02 08:45:00,59.9,47.4,-100.00,NNE,32,5.1,8.5,63,0.00,,,-99.99,466.0,HOBO +U30 +Weather +,2013-06-02 14:45:00,
2013-06-02 08:50:00,61.7,47.8,-100.00,North,7,3.4,5.6,60,0.00,,,-99.99,482.0,HOBO +U30 +Weather +,2013-06-02 14:50:00,
2013-06-02 09:00:00,62.0,46.6,-100.00,NE,39,4.0,7.4,56,0.00,,,-99.99,312.0,HOBO +U30 +Weather +,2013-06-02 15:00:00,
2013-06-02 09:02:00,61.8,47.8,-100.00,NE,42,4.0,7.4,59,0.00,,,-99.99,502.0,HOBO +U30 +Weather +,2013-06-02 15:02:00,
2013-06-02 09:05:00,62.0,47.0,-100.00,NNE,25,4.5,8.5,57,0.00,,,-99.99,594.0,HOBO +U30 +Weather +,2013-06-02 15:05:00,
2013-06-02 09:10:00,61.3,46.4,-100.00,NE,35,4.0,6.7,57,0.00,,,-99.99,202.0,HOBO +U30 +Weather +,2013-06-02 15:10:00,
2013-06-02 09:15:00,60.9,46.2,-100.00,NNE,31,3.4,7.8,58,0.00,,,-99.99,253.0,HOBO +U30 +Weather +,2013-06-02 15:15:00,
2013-06-02 09:20:00,60.7,46.6,-100.00,NE,41,5.6,7.8,59,0.00,,,-99.99,203.0,HOBO +U30 +Weather +,2013-06-02 15:20:00,
2013-06-02 09:25:00,62.0,46.8,-100.00,NNE,29,4.0,7.8,57,0.00,,,-99.99,611.0,HOBO +U30 +Weather +,2013-06-02 15:25:00,
2013-06-02 09:30:00,62.3,46.7,-100.00,NNE,32,5.1,7.4,56,0.00,,,-99.99,594.0,HOBO +U30 +Weather +,2013-06-02 15:30:00,
2013-06-02 09:35:00,63.5,47.7,-100.00,NE,35,2.2,6.3,56,0.00,,,-99.99,594.0,HOBO +U30 +Weather +,2013-06-02 15:35:00,
2013-06-02 09:40:00,64.0,48.3,-100.00,NE,41,3.4,7.4,56,0.00,,,-99.99,603.0,HOBO +U30 +Weather +,2013-06-02 15:40:00,
2013-06-02 09:45:00,64.4,48.2,-100.00,NE,41,3.4,7.8,55,0.00,,,-99.99,611.0,HOBO +U30 +Weather +,2013-06-02 15:45:00,
2013-06-02 09:50:00,63.7,48.6,-100.00,NNE,27,4.5,8.9,57,0.00,,,-99.99,621.0,HOBO +U30 +Weather +,2013-06-02 15:50:00,
2013-06-02 10:00:00,64.3,48.8,-100.00,North,352,4.0,8.9,57,0.00,,,-99.99,639.0,HOBO +U30 +Weather +,2013-06-02 16:00:00,
2013-06-02 10:01:00,64.7,49.2,-100.00,North,8,4.0,7.4,57,0.00,,,-99.99,632.0,HOBO +U30 +Weather +,2013-06-02 16:01:00,
2013-06-02 10:05:00,65.5,49.2,-100.00,NNE,13,4.0,7.4,55,0.00,,,-99.99,651.0,HOBO +U30 +Weather +,2013-06-02 16:05:00,
2013-06-02 10:10:00,66.0,49.4,-100.00,North,1,2.2,5.1,55,0.00,,,-99.99,661.0,HOBO +U30 +Weather +,2013-06-02 16:10:00,
2013-06-02 10:15:00,65.2,49.2,-100.00,North,4,5.1,8.5,56,0.00,,,-99.99,668.0,HOBO +U30 +Weather +,2013-06-02 16:15:00,
2013-06-02 10:20:00,66.0,49.4,-100.00,NNW,340,2.2,5.6,54,0.00,,,-99.99,678.0,HOBO +U30 +Weather +,2013-06-02 16:20:00,
2013-06-02 10:25:00,65.3,48.4,-100.00,NNE,29,4.5,8.9,54,0.00,,,-99.99,689.0,HOBO +U30 +Weather +,2013-06-02 16:25:00,
2013-06-02 10:30:00,66.3,49.0,-100.00,NE,42,4.0,8.5,53,0.00,,,-99.99,697.0,HOBO +U30 +Weather +,2013-06-02 16:30:00,
2013-06-02 10:35:00,67.4,49.9,-100.00,NNE,22,3.4,8.5,53,0.00,,,-99.99,704.0,HOBO +U30 +Weather +,2013-06-02 16:35:00,
2013-06-02 10:40:00,66.1,49.2,-100.00,NNE,29,4.5,8.9,54,0.00,,,-99.99,713.0,HOBO +U30 +Weather +,2013-06-02 16:40:00,
2013-06-02 10:45:00,66.8,50.3,-100.00,NE,48,3.4,9.6,55,0.00,,,-99.99,723.0,HOBO +U30 +Weather +,2013-06-02 16:45:00,
2013-06-02 10:59:00,66.1,50.2,-100.00,North,7,5.6,10.1,56,0.00,,,-99.99,729.0,HOBO +U30 +Weather +,2013-06-02 16:59:00,
2013-06-02 11:00:00,67.0,50.9,-100.00,ENE,62,4.5,9.6,56,0.00,,,-99.99,746.0,HOBO +U30 +Weather +,2013-06-02 17:00:00,
2013-06-02 11:05:00,67.7,50.4,-100.00,ENE,62,4.0,10.7,53,0.00,,,-99.99,752.0,HOBO +U30 +Weather +,2013-06-02 17:05:00,
2013-06-02 11:10:00,68.2,50.6,-100.00,NNE,31,4.0,8.9,53,0.00,,,-99.99,759.0,HOBO +U30 +Weather +,2013-06-02 17:10:00,
2013-06-02 11:15:00,68.1,51.0,-100.00,NE,39,3.4,7.4,54,0.00,,,-99.99,767.0,HOBO +U30 +Weather +,2013-06-02 17:15:00,
2013-06-02 11:20:00,67.2,50.3,-100.00,NE,56,6.3,13.0,54,0.00,,,-99.99,776.0,HOBO +U30 +Weather +,2013-06-02 17:20:00,
2013-06-02 11:25:00,69.4,51.2,-100.00,NNE,31,4.5,10.1,52,0.00,,,-99.99,781.0,HOBO +U30 +Weather +,2013-06-02 17:25:00,
2013-06-02 11:30:00,67.2,50.4,-100.00,NE,45,6.3,13.0,54,0.00,,,-99.99,787.0,HOBO +U30 +Weather +,2013-06-02 17:30:00,
2013-06-02 11:35:00,68.3,50.1,-100.00,NE,34,6.3,13.0,52,0.00,,,-99.99,796.0,HOBO +U30 +Weather +,2013-06-02 17:35:00,
2013-06-02 11:40:00,68.1,50.3,-100.00,NNE,32,8.5,13.0,53,0.00,,,-99.99,798.0,HOBO +U30 +Weather +,2013-06-02 17:40:00,
2013-06-02 11:45:00,69.3,51.1,-100.00,NNE,31,6.3,11.2,52,0.00,,,-99.99,804.0,HOBO +U30 +Weather +,2013-06-02 17:45:00,
2013-06-02 11:58:00,68.6,50.4,-100.00,NE,34,9.6,14.5,52,0.00,,,-99.99,803.0,HOBO +U30 +Weather +,2013-06-02 17:58:00,
2013-06-02 12:00:00,68.8,50.7,-100.00,NNE,21,11.2,14.5,52,0.00,,,-99.99,817.0,HOBO +U30 +Weather +,2013-06-02 18:00:00,
2013-06-02 12:05:00,69.1,51.0,-100.00,NNE,20,8.9,15.2,52,0.00,,,-99.99,822.0,HOBO +U30 +Weather +,2013-06-02 18:05:00,
2013-06-02 12:10:00,70.4,49.9,-100.00,North,8,7.8,16.3,48,0.00,,,-99.99,828.0,HOBO +U30 +Weather +,2013-06-02 18:10:00,
2013-06-02 12:15:00,69.6,48.3,-100.00,NE,41,10.1,18.1,46,0.00,,,-99.99,834.0,HOBO +U30 +Weather +,2013-06-02 18:15:00,
2013-06-02 12:20:00,71.2,47.4,-100.00,ENE,65,7.4,17.0,42,0.00,,,-99.99,839.0,HOBO +U30 +Weather +,2013-06-02 18:20:00,
2013-06-02 12:25:00,70.7,46.7,-100.00,NE,51,9.6,14.5,42,0.00,,,-99.99,836.0,HOBO +U30 +Weather +,2013-06-02 18:25:00,
2013-06-02 12:30:00,70.8,45.8,-100.00,ENE,72,10.7,17.0,40,0.00,,,-99.99,847.0,HOBO +U30 +Weather +,2013-06-02 18:30:00,
2013-06-02 12:35:00,71.4,47.2,-100.00,ENE,62,10.7,18.6,42,0.00,,,-99.99,848.0,HOBO +U30 +Weather +,2013-06-02 18:35:00,
2013-06-02 12:40:00,70.9,46.0,-100.00,ENE,63,10.1,17.4,40,0.00,,,-99.99,851.0,HOBO +U30 +Weather +,2013-06-02 18:40:00,
2013-06-02 12:45:00,71.1,45.2,-100.00,ENE,65,13.0,18.6,39,0.00,,,-99.99,851.0,HOBO +U30 +Weather +,2013-06-02 18:45:00,
2013-06-02 12:55:00,72.0,44.6,-100.00,East,83,10.7,19.2,37,0.00,,,-99.99,858.0,HOBO +U30 +Weather +,2013-06-02 18:55:00,
2013-06-02 12:57:00,72.6,44.5,-100.00,East,83,10.7,17.4,36,0.00,,,-99.99,861.0,HOBO +U30 +Weather +,2013-06-02 18:57:00,
2013-06-02 13:00:00,71.5,44.1,-100.00,NE,56,14.1,20.8,37,0.00,,,-99.99,859.0,HOBO +U30 +Weather +,2013-06-02 19:00:00,
2013-06-02 13:05:00,72.0,43.8,-100.00,ENE,66,13.0,20.4,36,0.00,,,-99.99,862.0,HOBO +U30 +Weather +,2013-06-02 19:05:00,
2013-06-02 13:10:00,72.5,44.1,-100.00,ENE,77,10.1,16.3,36,0.00,,,-99.99,861.0,HOBO +U30 +Weather +,2013-06-02 19:10:00,
2013-06-02 13:15:00,73.5,43.8,-100.00,East,90,11.2,19.7,34,0.00,,,-99.99,861.0,HOBO +U30 +Weather +,2013-06-02 19:15:00,
2013-06-02 13:20:00,72.1,43.1,-100.00,ENE,69,14.1,21.9,35,0.00,,,-99.99,861.0,HOBO +U30 +Weather +,2013-06-02 19:20:00,
2013-06-02 13:25:00,72.6,44.5,-100.00,ENE,69,13.0,18.6,36,0.00,,,-99.99,859.0,HOBO +U30 +Weather +,2013-06-02 19:25:00,
2013-06-02 13:30:00,73.0,44.8,-100.00,NE,55,12.3,18.6,36,0.00,,,-99.99,858.0,HOBO +U30 +Weather +,2013-06-02 19:30:00,
2013-06-02 13:35:00,73.1,45.1,-100.00,NE,49,12.3,18.1,36,0.00,,,-99.99,859.0,HOBO +U30 +Weather +,2013-06-02 19:35:00,
2013-06-02 13:40:00,72.8,45.2,-100.00,ENE,77,13.4,21.9,37,0.00,,,-99.99,856.0,HOBO +U30 +Weather +,2013-06-02 19:40:00,
2013-06-02 13:45:00,72.4,45.3,-100.00,East,97,11.9,19.2,37,0.00,,,-99.99,868.0,HOBO +U30 +Weather +,2013-06-02 19:45:00,
2013-06-02 13:55:00,72.6,45.6,-100.00,East,86,13.0,19.2,38,0.00,,,-99.99,914.0,HOBO +U30 +Weather +,2013-06-02 19:55:00,
2013-06-02 13:56:00,73.4,45.6,-100.00,ENE,59,11.9,17.4,37,0.00,,,-99.99,652.0,HOBO +U30 +Weather +,2013-06-02 19:56:00,
2013-06-02 14:00:00,72.7,45.2,-100.00,ENE,70,11.9,20.8,37,0.00,,,-99.99,859.0,HOBO +U30 +Weather +,2013-06-02 20:00:00,
2013-06-02 14:05:00,74.3,45.7,-100.00,ENE,76,10.1,17.4,36,0.00,,,-99.99,857.0,HOBO +U30 +Weather +,2013-06-02 20:05:00,
2013-06-02 14:10:00,73.3,45.7,-100.00,ENE,69,11.9,23.0,37,0.00,,,-99.99,663.0,HOBO +U30 +Weather +,2013-06-02 20:10:00,
2013-06-02 14:15:00,73.7,46.3,-100.00,ENE,67,14.1,24.8,37,0.00,,,-99.99,954.0,HOBO +U30 +Weather +,2013-06-02 20:15:00,
2013-06-02 14:20:00,73.9,45.6,-100.00,NE,48,14.5,20.8,36,0.00,,,-99.99,869.0,HOBO +U30 +Weather +,2013-06-02 20:20:00,
2013-06-02 14:25:00,73.9,46.1,-100.00,NE,55,14.5,22.6,37,0.00,,,-99.99,771.0,HOBO +U30 +Weather +,2013-06-02 20:25:00,
2013-06-02 14:30:00,74.1,46.4,-100.00,ENE,58,12.3,18.6,37,0.00,,,-99.99,826.0,HOBO +U30 +Weather +,2013-06-02 20:30:00,
2013-06-02 14:35:00,74.2,45.2,-100.00,ENE,69,13.4,22.6,35,0.00,,,-99.99,424.0,HOBO +U30 +Weather +,2013-06-02 20:35:00,
2013-06-02 14:40:00,75.3,45.7,-100.00,ENE,67,13.4,20.4,34,0.00,,,-99.99,846.0,HOBO +U30 +Weather +,2013-06-02 20:40:00,
2013-06-02 14:54:00,74.2,44.5,-100.00,East,81,12.3,19.7,34,0.00,,,-99.99,662.0,HOBO +U30 +Weather +,2013-06-02 20:54:00,
2013-06-02 14:55:00,74.6,44.4,-100.00,East,80,13.4,20.4,34,0.00,,,-99.99,787.0,HOBO +U30 +Weather +,2013-06-02 20:55:00,
2013-06-02 15:00:00,74.8,45.4,-100.00,East,81,12.3,19.7,35,0.00,,,-99.99,848.0,HOBO +U30 +Weather +,2013-06-02 21:00:00,
2013-06-02 15:05:00,74.2,45.5,-100.00,ENE,77,13.4,20.8,35,0.00,,,-99.99,646.0,HOBO +U30 +Weather +,2013-06-02 21:05:00,
2013-06-02 15:10:00,74.4,45.3,-100.00,East,79,13.4,19.2,35,0.00,,,-99.99,397.0,HOBO +U30 +Weather +,2013-06-02 21:10:00,
2013-06-02 15:15:00,74.0,45.3,-100.00,ENE,70,15.9,24.8,35,0.00,,,-99.99,678.0,HOBO +U30 +Weather +,2013-06-02 21:15:00,
2013-06-02 15:20:00,74.8,45.6,-100.00,ENE,65,12.3,17.4,35,0.00,,,-99.99,431.0,HOBO +U30 +Weather +,2013-06-02 21:20:00,
2013-06-02 15:25:00,75.4,45.9,-100.00,ENE,62,11.2,20.8,35,0.00,,,-99.99,608.0,HOBO +U30 +Weather +,2013-06-02 21:25:00,
2013-06-02 15:30:00,75.4,45.6,-100.00,NE,49,12.3,19.2,34,0.00,,,-99.99,764.0,HOBO +U30 +Weather +,2013-06-02 21:30:00,
2013-06-02 15:35:00,74.9,45.6,-100.00,ENE,69,12.3,19.7,35,0.00,,,-99.99,222.0,HOBO +U30 +Weather +,2013-06-02 21:35:00,
2013-06-02 15:40:00,75.3,45.4,-100.00,East,81,10.1,21.5,34,0.00,,,-99.99,297.0,HOBO +U30 +Weather +,2013-06-02 21:40:00,
2013-06-02 15:53:00,75.3,45.2,-100.00,ENE,69,12.3,19.7,34,0.00,,,-99.99,383.0,HOBO +U30 +Weather +,2013-06-02 21:53:00,
2013-06-02 15:55:00,76.1,45.8,-100.00,ENE,65,15.9,20.8,34,0.00,,,-99.99,657.0,HOBO +U30 +Weather +,2013-06-02 21:55:00,
2013-06-02 16:00:00,75.1,43.6,-100.00,East,84,14.5,22.6,32,0.00,,,-99.99,666.0,HOBO +U30 +Weather +,2013-06-02 22:00:00,
2013-06-02 16:05:00,75.4,45.3,-100.00,ENE,65,15.9,21.9,34,0.00,,,-99.99,441.0,HOBO +U30 +Weather +,2013-06-02 22:05:00,
2013-06-02 16:10:00,75.5,45.8,-100.00,ENE,65,15.9,23.7,34,0.00,,,-99.99,338.0,HOBO +U30 +Weather +,2013-06-02 22:10:00,
2013-06-02 16:15:00,75.6,46.5,-100.00,East,81,16.3,21.5,35,0.00,,,-99.99,698.0,HOBO +U30 +Weather +,2013-06-02 22:15:00,
2013-06-02 16:20:00,75.5,46.0,-100.00,East,91,14.1,19.2,35,0.00,,,-99.99,219.0,HOBO +U30 +Weather +,2013-06-02 22:20:00,
2013-06-02 16:25:00,75.6,46.3,-100.00,East,86,10.7,17.4,35,0.00,,,-99.99,162.0,HOBO +U30 +Weather +,2013-06-02 22:25:00,
2013-06-02 16:30:00,75.5,45.2,-100.00,East,91,9.6,17.4,34,0.00,,,-99.99,98.0,HOBO +U30 +Weather +,2013-06-02 22:30:00,
2013-06-02 16:35:00,74.6,45.7,-100.00,East,90,13.4,18.6,35,0.00,,,-99.99,103.0,HOBO +U30 +Weather +,2013-06-02 22:35:00,
2013-06-02 16:40:00,74.6,46.3,-100.00,East,84,11.2,18.1,36,0.00,,,-99.99,139.0,HOBO +U30 +Weather +,2013-06-02 22:40:00,
2013-06-02 16:50:00,74.5,46.9,-100.00,East,86,11.2,19.7,37,0.00,,,-99.99,256.0,HOBO +U30 +Weather +,2013-06-02 22:50:00,
2013-06-02 16:52:00,74.6,46.1,-100.00,East,79,11.9,17.4,36,0.00,,,-99.99,274.0,HOBO +U30 +Weather +,2013-06-02 22:52:00,
2013-06-02 16:55:00,75.4,49.1,-100.00,East,91,8.9,15.2,39,0.00,,,-99.99,199.0,HOBO +U30 +Weather +,2013-06-02 22:55:00,
2013-06-02 17:00:00,74.5,48.0,-100.00,SE,142,10.7,16.3,39,0.00,,,-99.99,164.0,HOBO +U30 +Weather +,2013-06-02 23:00:00,
2013-06-02 17:05:00,74.4,48.5,-100.00,SE,145,12.3,20.8,39,0.00,,,-99.99,194.0,HOBO +U30 +Weather +,2013-06-02 23:05:00,
2013-06-02 17:10:00,73.6,47.6,-100.00,SSE,147,13.4,19.2,39,0.00,,,-99.99,332.0,HOBO +U30 +Weather +,2013-06-02 23:10:00,
2013-06-02 17:15:00,73.7,47.7,-100.00,ESE,111,7.8,16.3,39,0.00,,,-99.99,431.0,HOBO +U30 +Weather +,2013-06-02 23:15:00,
2013-06-02 17:20:00,73.6,49.8,-100.00,ENE,77,12.3,17.4,43,0.00,,,-99.99,549.0,HOBO +U30 +Weather +,2013-06-02 23:20:00,
2013-06-02 17:25:00,73.8,50.5,-100.00,ENE,66,10.7,14.5,43,0.00,,,-99.99,381.0,HOBO +U30 +Weather +,2013-06-02 23:25:00,
2013-06-02 17:30:00,74.2,50.9,-100.00,ENE,69,7.8,12.3,43,0.00,,,-99.99,324.0,HOBO +U30 +Weather +,2013-06-02 23:30:00,
2013-06-02 17:35:00,74.6,48.6,-100.00,ENE,76,10.7,20.8,39,0.00,,,-99.99,539.0,HOBO +U30 +Weather +,2013-06-02 23:35:00,
2013-06-02 17:40:00,75.0,49.6,-100.00,ENE,76,15.2,23.0,40,0.00,,,-99.99,533.0,HOBO +U30 +Weather +,2013-06-02 23:40:00,
2013-06-02 17:50:00,74.9,48.2,-100.00,East,91,14.5,20.8,38,0.00,,,-99.99,433.0,HOBO +U30 +Weather +,2013-06-02 23:50:00,
2013-06-02 17:51:00,75.4,48.4,-100.00,ENE,76,13.4,20.8,38,0.00,,,-99.99,466.0,HOBO +U30 +Weather +,2013-06-02 23:51:00,
2013-06-02 17:55:00,75.2,48.4,-100.00,East,93,14.1,21.5,38,0.00,,,-99.99,421.0,HOBO +U30 +Weather +,2013-06-02 23:55:00,
2013-06-02 18:00:00,74.3,47.9,-100.00,East,93,14.5,20.8,39,0.00,,,-99.99,144.0,HOBO +U30 +Weather +,2013-06-03 00:00:00,
2013-06-02 18:05:00,74.6,46.8,-100.00,ENE,70,17.4,25.9,37,0.00,,,-99.99,429.0,HOBO +U30 +Weather +,2013-06-03 00:05:00,
2013-06-02 18:10:00,75.1,47.7,-100.00,ENE,69,16.3,24.2,37,0.00,,,-99.99,393.0,HOBO +U30 +Weather +,2013-06-03 00:10:00,
2013-06-02 18:15:00,74.2,47.7,-100.00,ENE,66,18.1,24.2,39,0.00,,,-99.99,97.0,HOBO +U30 +Weather +,2013-06-03 00:15:00,
2013-06-02 18:20:00,74.6,48.1,-100.00,ENE,67,11.2,18.1,39,0.00,,,-99.99,264.0,HOBO +U30 +Weather +,2013-06-03 00:20:00,
2013-06-02 18:25:00,74.6,46.7,-100.00,East,87,14.5,21.9,37,0.00,,,-99.99,103.0,HOBO +U30 +Weather +,2013-06-03 00:25:00,
2013-06-02 18:30:00,74.6,46.3,-100.00,East,88,14.1,19.7,36,0.00,,,-99.99,293.0,HOBO +U30 +Weather +,2013-06-03 00:30:00,
2013-06-02 18:35:00,74.9,46.5,-100.00,East,83,9.6,13.4,36,0.00,,,-99.99,88.0,HOBO +U30 +Weather +,2013-06-03 00:35:00,
2013-06-02 18:49:00,73.8,48.8,-100.00,ENE,63,10.7,14.5,41,0.00,,,-99.99,81.0,HOBO +U30 +Weather +,2013-06-03 00:49:00,
2013-06-02 18:50:00,73.7,48.4,-100.00,ENE,67,13.4,19.2,40,0.00,,,-99.99,107.0,HOBO +U30 +Weather +,2013-06-03 00:50:00,
2013-06-02 18:55:00,73.9,46.3,-100.00,ENE,72,15.2,22.6,37,0.00,,,-99.99,63.0,HOBO +U30 +Weather +,2013-06-03 00:55:00,
2013-06-02 19:00:00,73.7,46.6,-100.00,ENE,70,15.2,22.6,38,0.00,,,-99.99,53.0,HOBO +U30 +Weather +,2013-06-03 01:00:00,
2013-06-02 19:05:00,73.6,47.2,-100.00,ENE,73,14.5,22.6,39,0.00,,,-99.99,46.0,HOBO +U30 +Weather +,2013-06-03 01:05:00,
2013-06-02 19:10:00,73.5,47.8,-100.00,ENE,76,9.6,16.3,40,0.00,,,-99.99,43.0,HOBO +U30 +Weather +,2013-06-03 01:10:00,
2013-06-02 19:15:00,73.3,48.1,-100.00,East,86,9.6,13.0,40,0.00,,,-99.99,33.0,HOBO +U30 +Weather +,2013-06-03 01:15:00,
2013-06-02 19:20:00,73.3,48.7,-100.00,ENE,65,6.7,12.3,41,0.00,,,-99.99,33.0,HOBO +U30 +Weather +,2013-06-03 01:20:00,
2013-06-02 19:25:00,73.3,49.0,-100.00,ENE,66,8.5,17.4,42,0.00,,,-99.99,47.0,HOBO +U30 +Weather +,2013-06-03 01:25:00,
2013-06-02 19:30:00,73.4,49.2,-100.00,East,83,11.9,17.4,42,0.00,,,-99.99,39.0,HOBO +U30 +Weather +,2013-06-03 01:30:00,
2013-06-02 19:35:00,73.1,49.4,-100.00,ENE,69,8.5,12.3,43,0.00,,,-99.99,54.0,HOBO +U30 +Weather +,2013-06-03 01:35:00,
2013-06-02 19:45:00,73.3,49.4,-100.00,ENE,63,6.3,10.7,42,0.00,,,-99.99,48.0,HOBO +U30 +Weather +,2013-06-03 01:45:00,
2013-06-02 19:48:00,73.2,49.6,-100.00,ENE,73,7.4,11.9,43,0.00,,,-99.99,56.0,HOBO +U30 +Weather +,2013-06-03 01:48:00,
2013-06-02 19:50:00,73.7,49.3,-100.00,ESE,102,4.0,8.5,42,0.00,,,-99.99,58.0,HOBO +U30 +Weather +,2013-06-03 01:50:00,
2013-06-02 19:55:00,73.6,49.5,-100.00,ENE,62,7.8,14.5,42,0.00,,,-99.99,53.0,HOBO +U30 +Weather +,2013-06-03 01:55:00,
2013-06-02 20:00:00,73.5,49.5,-100.00,ENE,60,6.3,11.2,42,0.00,,,-99.99,49.0,HOBO +U30 +Weather +,2013-06-03 02:00:00,
2013-06-02 20:05:00,73.5,49.3,-100.00,NE,34,4.0,8.9,42,0.00,,,-99.99,54.0,HOBO +U30 +Weather +,2013-06-03 02:05:00,
2013-06-02 20:10:00,73.3,49.8,-100.00,North,350,3.4,6.7,43,0.00,,,-99.99,43.0,HOBO +U30 +Weather +,2013-06-03 02:10:00,
2013-06-02 20:15:00,73.1,49.5,-100.00,WNW,302,6.7,14.5,43,0.00,,,-99.99,32.0,HOBO +U30 +Weather +,2013-06-03 02:15:00,
2013-06-02 20:20:00,70.3,50.4,-100.00,NW,305,11.9,19.7,49,0.00,,,-99.99,22.0,HOBO +U30 +Weather +,2013-06-03 02:20:00,
2013-06-02 20:25:00,68.5,50.5,-100.00,NW,316,11.9,22.6,52,0.00,,,-99.99,16.0,HOBO +U30 +Weather +,2013-06-03 02:25:00,
2013-06-02 20:30:00,69.0,50.5,-100.00,NW,314,11.9,23.7,51,0.00,,,-99.99,14.0,HOBO +U30 +Weather +,2013-06-03 02:30:00,
2013-06-02 20:35:00,67.4,51.0,-100.00,NW,319,11.9,19.7,55,0.00,,,-99.99,13.0,HOBO +U30 +Weather +,2013-06-03 02:35:00,
2013-06-02 20:45:00,64.8,51.9,-100.00,NNW,336,14.5,21.9,62,0.00,,,-99.99,4.0,HOBO +U30 +Weather +,2013-06-03 02:45:00,
2013-06-02 20:46:00,66.1,51.6,-100.00,NNW,336,10.7,19.7,59,0.00,,,-99.99,7.0,HOBO +U30 +Weather +,2013-06-03 02:46:00,
2013-06-02 20:50:00,63.9,52.1,-100.00,NNW,341,16.3,23.7,65,0.00,,,-99.99,2.0,HOBO +U30 +Weather +,2013-06-03 02:50:00,
2013-06-02 20:55:00,62.5,52.5,-100.00,NNW,343,18.1,25.9,69,0.00,,,-99.99,2.0,HOBO +U30 +Weather +,2013-06-03 02:55:00,
2013-06-02 21:00:00,61.9,52.5,-100.00,NNW,341,15.2,22.6,71,0.00,,,-99.99,1.0,HOBO +U30 +Weather +,2013-06-03 03:00:00,
2013-06-02 21:05:00,61.7,52.6,-100.00,North,1,14.1,24.8,71,0.00,,,-99.99,1.0,HOBO +U30 +Weather +,2013-06-03 03:05:00,
2013-06-02 21:10:00,61.5,52.2,-100.00,North,1,14.5,23.0,71,0.00,,,-99.99,1.0,HOBO +U30 +Weather +,2013-06-03 03:10:00,
2013-06-02 21:15:00,61.3,51.6,-100.00,NNE,14,12.3,21.5,70,0.00,,,-99.99,1.0,HOBO +U30 +Weather +,2013-06-03 03:15:00,
2013-06-02 21:20:00,61.2,51.4,-100.00,NNE,17,12.3,22.6,69,0.00,,,-99.99,1.0,HOBO +U30 +Weather +,2013-06-03 03:20:00,
2013-06-02 21:25:00,60.9,51.3,-100.00,NNE,14,8.9,14.1,70,0.00,,,-99.99,1.0,HOBO +U30 +Weather +,2013-06-03 03:25:00,
2013-06-02 21:30:00,60.3,51.3,-100.00,NNE,17,11.9,17.0,71,0.00,,,-99.99,1.0,HOBO +U30 +Weather +,2013-06-03 03:30:00,
2013-06-02 21:35:00,60.4,51.2,-100.00,NNE,14,14.1,21.5,71,0.00,,,-99.99,1.0,HOBO +U30 +Weather +,2013-06-03 03:35:00,
2013-06-02 21:45:00,60.5,51.2,-100.00,NNE,13,11.9,17.4,71,0.00,,,-99.99,1.0,HOBO +U30 +Weather +,2013-06-03 03:45:00,
2013-06-02 21:50:00,60.4,51.4,-100.00,North,11,15.2,19.7,72,0.00,,,-99.99,1.0,HOBO +U30 +Weather +,2013-06-03 03:50:00,
2013-06-02 21:55:00,60.6,51.4,-100.00,North,10,11.9,17.4,71,0.00,,,-99.99,1.0,HOBO +U30 +Weather +,2013-06-03 03:55:00,
2013-06-02 22:00:00,60.5,51.4,-100.00,North,3,10.1,14.5,72,0.00,,,-99.99,1.0,HOBO +U30 +Weather +,2013-06-03 04:00:00,
2013-06-02 22:05:00,60.4,51.5,-100.00,North,3,11.9,15.2,72,0.00,,,-99.99,1.0,HOBO +U30 +Weather +,2013-06-03 04:05:00,
2013-06-02 22:10:00,60.5,51.5,-100.00,North,10,8.5,12.3,72,0.00,,,-99.99,1.0,HOBO +U30 +Weather +,2013-06-03 04:10:00,
2013-06-02 22:15:00,60.5,51.3,-100.00,NNE,15,12.3,16.3,71,0.00,,,-99.99,1.0,HOBO +U30 +Weather +,2013-06-03 04:15:00,
2013-06-02 22:20:00,60.5,51.4,-100.00,NNE,21,8.9,14.5,71,0.00,,,-99.99,1.0,HOBO +U30 +Weather +,2013-06-03 04:20:00,
2013-06-02 22:25:00,60.3,51.5,-100.00,NNE,22,11.2,16.3,72,0.00,,,-99.99,1.0,HOBO +U30 +Weather +,2013-06-03 04:25:00,
2013-06-02 22:30:00,60.3,51.3,-100.00,NNE,28,11.2,17.0,72,0.00,,,-99.99,1.0,HOBO +U30 +Weather +,2013-06-03 04:30:00,
2013-06-02 22:44:00,60.1,50.8,-100.00,NE,34,12.3,18.6,71,0.00,,,-99.99,1.0,HOBO +U30 +Weather +,2013-06-03 04:44:00,
2013-06-02 22:45:00,60.0,51.1,-100.00,NNE,27,5.6,10.7,72,0.00,,,-99.99,1.0,HOBO +U30 +Weather +,2013-06-03 04:45:00,
2013-06-02 22:50:00,60.1,51.1,-100.00,NNW,344,2.2,7.4,72,0.00,,,-99.99,1.0,HOBO +U30 +Weather +,2013-06-03 04:50:00,
2013-06-02 22:55:00,60.3,50.8,-100.00,WSW,250,5.6,8.5,71,0.00,,,-99.99,1.0,HOBO +U30 +Weather +,2013-06-03 04:55:00,
2013-06-02 23:00:00,60.3,50.8,-100.00,West,265,3.4,6.7,70,0.00,,,-99.99,1.0,HOBO +U30 +Weather +,2013-06-03 05:00:00,
2013-06-02 23:05:00,60.6,51.2,-100.00,WSW,243,5.6,8.9,71,0.00,,,-99.99,1.0,HOBO +U30 +Weather +,2013-06-03 05:05:00,
2013-06-02 23:10:00,60.7,51.2,-100.00,WSW,240,5.6,8.9,70,0.00,,,-99.99,1.0,HOBO +U30 +Weather +,2013-06-03 05:10:00,
2013-06-02 23:15:00,60.5,51.7,-100.00,SW,216,4.5,10.7,72,0.00,,,-99.99,1.0,HOBO +U30 +Weather +,2013-06-03 05:15:00,
2013-06-02 23:20:00,60.1,52.1,-100.00,SW,219,6.3,10.1,74,0.00,,,-99.99,1.0,HOBO +U30 +Weather +,2013-06-03 05:20:00,
2013-06-02 23:25:00,60.0,52.2,-100.00,SW,234,4.5,7.8,75,0.00,,,-99.99,1.0,HOBO +U30 +Weather +,2013-06-03 05:25:00,
2013-06-02 23:30:00,59.9,52.4,-100.00,SW,223,6.3,9.6,76,0.00,,,-99.99,1.0,HOBO +U30 +Weather +,2013-06-03 05:30:00,
2013-06-02 23:35:00,59.8,52.7,-100.00,SW,227,5.6,10.7,77,0.00,,,-99.99,1.0,HOBO +U30 +Weather +,2013-06-03 05:35:00,
2013-06-02 23:40:00,59.4,52.9,-100.00,SW,230,4.0,7.4,79,0.00,,,-99.99,1.0,HOBO +U30 +Weather +,2013-06-03 05:40:00,
2013-06-02 23:45:00,59.3,53.3,-100.00,SW,230,4.0,8.5,80,0.00,,,-99.99,1.0,HOBO +U30 +Weather +,2013-06-03 05:45:00,
2013-06-02 23:50:00,59.1,53.4,-100.00,WSW,244,7.4,11.2,81,0.00,,,-99.99,1.0,HOBO +U30 +Weather +,2013-06-03 05:50:00,
2013-06-02 23:55:00,59.0,53.4,-100.00,WSW,258,6.7,10.1,81,0.00,,,-99.99,1.0,HOBO +U30 +Weather +,2013-06-03 05:55:00,